www.pogodaiklimat.ru

Погода и климат >> Архив погоды >> Доминиканская Республика >> Пуэрто-Плата


ПОГОДА в Пуэрто-Плате

  • Прогноз погоды в Пуэрто-Плате
  • Монитор погоды в Пуэрто-Плате

АРХИВ ПОГОДЫ в Пуэрто-Плате

Время (UTC), дата Ветер
(напр.,м/с)
 
Видим.   Явления Облачность Т
(С)
Тd
(С)
f
(%)
Тe
(С)
Тes
(С)
Комфортность P
(гПа)
Po
(гПа)
Тmin
(С)
Tmax
(С)
R
(мм)
R24
(мм)
S
(см)
18 16.01 СВ 4 16 км 3/3 600 м
[Cu med, cong]
+27.6 +21.2 68 +35 +40 очень
душно
1017.2 1017.0 +17.6 +28.5
21 16.01 СВ 4 16 км 1/1 600 м
[Cu med, cong]
+28.3 +21.2 65 +36 +37 очень
душно
1016.2 1016.0
00 17.01 штиль 0 16 км 1/1 540 м
[Cu med, cong]
+22.1 +20.5 91 +28 +28 душно 1017.9 1018.0 +17.6 +29.5
03 17.01 штиль 0 16 км 1/1 480 м
[Cu med, cong]
+20.3 +19.5 95 +24 +24 комфорт 1018.8 1019.0
06 17.01 штиль 0 16 км 1/1 480 м
[Cu med, cong]
+19.1 +18.5 96 +21 +21 комфорт 1018.3 1018.0 +17.6 +29.5
09 17.01 штиль 0 16 км 1/1 480 м
[Cu med, cong]
+19.0 +18.4 96 +21 +21 комфорт 1017.3 1017.0
12 17.01 штиль 0 16 км 1/1 480 м
[Cu med, cong]
+18.2 +17.6 96 +19 +19 1018.8 1019.0 +18.0 +29.5
15 17.01 В 5 16 км 1/1 600 м
[Cu med, cong]
+27.3 +20.9 68 +34 +39 очень
душно
1019.7 1020.0
18 17.01 СВ 5 16 км 1/1 600 м
[Cu med, cong]
+28.0 +21.3 67 +35 +41 очень
душно
1017.7 1018.0 +18.0 +29.2
21 17.01 В 4 16 км 1/1 660 м
[Cu med, cong]
+27.4 +19.1 61 +33 +34 очень
душно
1017.5 1018.0
00 18.01 штиль 0 16 км 1/1 540 м
[Cu med, cong]
+21.0 +19.2 89 +25 +25 комфорт 1018.8 1019.0 +18.0 +29.7
03 18.01 штиль 0 16 км 1/1 480 м
[Cu med, cong]
+20.2 +18.4 89 +23 +23 комфорт 1019.6 1020.0
06 18.01 штиль 0 16 км 1/1 480 м
[Cu med, cong]
+19.4 +18.5 95 +22 +22 комфорт 1017.9 1018.0 +18.0 +29.7
09 18.01 штиль 0 16 км 1/1 480 м
[Cu med, cong]
+19.0 +18.4 96 +21 +21 комфорт 1016.6 1017.0
12 18.01 штиль 0 16 км 3/1 540 м
[Cu med, cong Ac trans]
+19.4 +18.8 96 +22 +22 комфорт 1017.1 1017.0 +19.2 +29.7
15 18.01 штиль 0 16 км 3/3 600 м
[Cu med, cong]
+27.4 +22.2 73 +36 +45 очень
душно
1018.8 1019.0
18 18.01 СВ 5 16 км 3/3 660 м
[Cu med, cong]
+28.2 +21.9 69 +36 +41 очень
душно
1016.3 1016.0 +19.2 +29.3
21 18.01 В 5 16 км 6/3 660 м
[Cu med, cong As op]
+27.2 +22.5 76 +36 +36 очень
душно
1015.5 1016.0
00 19.01 В 3 16 км 6/3 600 м
[Cu med, cong As op]
+24.0 +22.3 90 +31 +31 очень
душно
1016.1 1016.0 +19.2 +29.8
03 19.01 штиль 0 16 км 6/3 540 м
[Cu med, cong As op]
+23.4 +21.7 90 +32 +32 очень
душно
1017.7 1018.0
06 19.01 штиль 0 16 км 6/3 540 м
[Cu med, cong As op]
+19.2 +18.3 95 +21 +21 комфорт 1016.7 1017.0 +19.2 +29.8
09 19.01 штиль 0 16 км 6/3 540 м
[Cu med, cong As op]
+20.0 +18.8 93 +23 +23 комфорт 1016.1 1016.0
12 19.01 штиль 0 16 км 3/3 540 м
[Cu med, cong]
+18.4 +17.8 96 +19 +20 1017.3 1017.0 +18.5 +29.8
15 19.01 СВ 5 16 км 6/3 600 м
[Cu med, cong As op]
+26.8 +21.5 73 +34 +37 очень
душно
1018.7 1019.0
18 19.01 В 5 16 км 6/3 660 м
[Cu med, cong Ac trans]
+28.4 +22.4 70 +37 +40 очень
душно
1016.7 1017.0 +18.5 +29.6
21 19.01 В 6 16 км 5/3 660 м
[Cu med, cong Ac trans]
+27.0 +21.5 72 +34 +35 очень
душно
1014.7 1015.0
00 20.01 В 5 16 км 3/3 540 м
[Cu med, cong]
+24.3 +20.2 78 +30 +30 очень
душно
1015.9 1016.0 +18.5 +29.6
03 20.01 ЮВ 3 16 км 3/3 540 м
[Cu med, cong]
+23.4 +20.2 82 +31 +31 очень
душно
1017.0 1017.0
06 20.01 штиль 0 16 км 1/1 480 м
[Cu hum]
+23.0 +20.1 84 +30 +30 очень
душно
1016.0 1016.0 +18.5 +29.2
09 20.01 штиль 0 16 км 1/1 480 м
[Cu hum]
+20.3 +19.5 95 +24 +24 комфорт 1015.1 1015.0
12 20.01 штиль 0 16 км 1/1 480 м
[Cu hum]
+19.0 +17.9 93 +20 +21 1016.7 1017.0 +18.7 +29.6
15 20.01 В 5 16 км 1/1 600 м
[Cu med, cong]
+28.2 +21.3 66 +36 +41 очень
душно
1018.3 1018.0
18 20.01 ЮВ 4 16 км 1/1 660 м
[Cu med, cong]
+30.3 +19.9 54 +37 +44 очень
душно
1015.6 1016.0 +18.7 +31.2
21 20.01 В 4 16 км 3/3 660 м
[Cu med, cong]
+29.0 +20.6 61 +36 +37 очень
душно
1014.7 1015.0
00 21.01 ЮВ 5 16 км 5/1 540 м
[Cu med, cong Ac trans]
+25.1 +20.7 77 +31 +31 очень
душно
1016.5 1017.0 +18.7 +31.2
03 21.01 В 3 16 км 3/1 540 м
[Cu hum Ac trans]
+23.1 +20.4 85 +30 +30 очень
душно
1017.5 1018.0
06 21.01 штиль 0 16 км 1/1 480 м
[Cu hum]
+23.0 +21.6 92 +31 +31 очень
душно
1017.5 1018.0 +18.7 +31.2
09 21.01 штиль 0 16 км 1/1 480 м
[Cu hum]
+21.3 +19.7 91 +26 +26 душно 1016.2 1016.0
12 21.01 штиль 0 16 км 1/1 480 м
[Cu hum]
+19.3 +18.4 95 +21 +22 комфорт 1018.2 1018.0 +18.0 +31.2
15 21.01 СВ 2 16 км 1/1 660 м
[Cu med, cong]
+27.3 +20.4 66 +34 +43 очень
душно
1019.5 1020.0
18 21.01 СВ 3 16 км 1/1 660 м
[Cu med, cong]
+29.0 +21.1 62 +36 +45 очень
душно
1017.5 1018.0 +18.0 +29.2
21 21.01 СВ 5 16 км 1/1 660 м
[Cu med, cong]
+28.5 +22.3 69 +37 +38 очень
душно
1016.5 1017.0
00 22.01 штиль 0 16 км 3/3 600 м
[Cu med, cong Ac As]
+23.5 +21.9 91 +30 +30 очень
душно
1018.2 1018.0 +18.0 +30.4
03 22.01 ЮВ 3 16 км 5/4 540 м
[Cu med, cong Ac As]
+22.0 +20.5 91 +28 +28 душно 1019.4 1019.0
06 22.01 В 5 16 км 6/4 500 м
[Cu med, cong Ac As]
+21.8 +20.3 91 +28 +28 душно 1019.5 1020.0 +18.0 +30.4
09 22.01 В 3 16 км 5/4 480 м
[Cu med, cong Ac trans]
+19.8 +19.2 96 +23 +23 комфорт 1018.1 1018.0
12 22.01 штиль 0 16 км 3/3 540 м
[Cu med, cong Ac trans]
+20.4 +19.6 95 +24 +25 комфорт 1020.5 1021.0 +19.0 +30.4
15 22.01 В 5 16 км 5/5 600 м
[Cu med, cong]
+27.6 +21.8 71 +36 +38 очень
душно
1022.3 1022.0
18 22.01 В 6 16 км 4/4 600 м
[Cu med, cong]
+27.8 +21.1 67 +35 +38 очень
душно
1021.3 1021.0 +19.0 +30.0
21 22.01 В 6 16 км 5/5 600 м
[Cu med, cong]
+28.0 +20.4 63 +34 +35 очень
душно
1020.8 1021.0
00 23.01 В 5 16 км 5/5 500 м
[Cu med, cong]
+24.8 +20.7 78 +31 +31 очень
душно
1021.8 1022.0 +19.0 +30.2
03 23.01 В 2 16 км {дождь} 6/6 500 м
[Cu med, cong]
+22.3 +20.6 90 +29 +29 очень
душно
1022.2 1022.0 1
06 23.01 В 3 16 км {дождь} 5/5 480 м
[Cu med, cong]
+20.8 +18.7 88 +25 +25 комфорт 1021.3 1021.0 +19.0 +30.2
09 23.01 штиль 0 16 км 4/4 480 м
[Cu med, cong]
+20.7 +18.6 88 +24 +24 комфорт 1020.5 1021.0
12 23.01 В 2 16 км в посл. час дождь 5/5 300 м
[Cu med, cong]
+21.0 +19.5 91 +26 +27 душно 1021.0 1021.0 +20.4 +30.2 0.3

 

Местоположение метеостанции Пуэрто-Плата (Доминиканская Республика): широта 19.75 долгота -70.55 высота над уровнем моря 5 м.

В архиве по умолчанию представлена погода в Пуэрто-Плате за последнюю неделю. Архивные данные за месяц целиком и за предыдущие месяцы, начиная с января 2011 года, Вы можете получить, выбрав интересующий диапазон дат из раскрывающегося списка и нажав кнопку "Ввод!".


*Определитесь, кто Вы:
робот инопланетянин человек

Внимание! Время в таблицах - всемирное. Для получения местного времени необходимо прибавить поправку, которая равна -4 ч.

Смотрите также архив погоды в соседних городах и на ближайших метеорологических станциях:

Погода в Сантьяго (Доминиканская Республика) (37 км)
Погода в Сабана де ла Мар (Доминиканская Республика) (145 км)
Погода в Санто-Доминго (Доминиканская Республика) (163 км)
Погода в Лас Америкас (Доминиканская Республика) (174 км)
Погода в Бараоне (Доминиканская Республика) (182 км)
Погода в Ла Романа аэропорту (Доминиканская Республика) (224 км)
Погода в Пунта-Кане (Доминиканская Республика) (265 км)
Погода в Пунта-де-Маиси (Куба) (380 км)
Погода в Пунта Лукреция (Куба) (547 км)
Погода в Кабо-Луреции (Куба) (548 км)

Пояснения к столбцам:

Ветер - указаны скорость ветра в м/с - средняя за 10 мин, порывы в срок и между сроками (в фигурных скобках) и направление, откуда дует ветер: С - северный, СВ - северо-восточный, В - восточный, ЮВ - юго-восточный, Ю - южный, ЮЗ - юго-западный, З - западный, СЗ - северо-западный.
Видимость - горизонтальная дальность видимости в метрах или километрах. При видимости от 1 до 10 км при отсутствии осадков обычно наблюдается дымка, при ухудшении видимости до 1 км и менее - туман. В сухую погоду видимость может ухудшаться дымом, пылью или мглою.
Явления - указаны атмосферные явления, наблюдавшиеся в срок или в последний час перед сроком; фигурными скобками обозначены явления, наблюдавшиеся между сроками (за 1-3 часа до срока); квадратными скобками обозначены град или гололедные отложения с указанием их диаметра в мм.
Облачность - указаны через наклонную черту общая и нижняя облачность в баллах и высота нижней границы облаков в метрах; квадратными скобками обозначены формы облаков: Ci - перистые, Cs - перисто-слоистые, Cc - перисто-кучевые, Ac - высококучевые, As - высокослоистые, Sc - слоисто-кучевые, Ns - слоисто-дождевые, Cu - кучевые, Cb - кучево-дождевые. Подробнее классификацию облаков см. в Атласе облаков (PDF).
T - Температура воздуха - температура, измеренная на высоте 2 м над землей.
Td - Температура точки росы - температура, при понижении до которой содержащийся в воздухе водяной пар достигнет насыщения.
f - Относительная влажность воздуха - влажноcть воздуха, измеренная на высоте 2 м над землей.
Te - Эффективная температура - температура, которую ощущает одетый по сезону человек в тени. Характеристика душности погоды. При расчете учитывается влияние влажности воздуха и скорости ветра на теплоощущения человека.
Tes - Эффективная температура на солнце - температура, которую ощущает человек, с поправкой на солнечный нагрев. Характеристика знойности погоды. Зависит от высоты солнца над горизонтом, облачности и скорости ветра. Ночью, в пасмурную погоду, а также при ветре 12 м/с и более поправка равна нулю.
P - Атмосферное давление - приведенное к уровню моря атмосферное давление.
Po - Атмосферное давление - измеренное на уровне метеостанции атмосферное давление.
Tmin - Минимальная температура - минимум температуры воздуха на высоте 2 м над землей.
Tmax - Максимальная температура - максимум температуры воздуха на высоте 2 м над землей.
R - Количество осадков - Количество выпавших осадков за период времени, мм. При наведении курсора мыши на число - период времени, за который выпало указанное количество осадков.
R24 - Количество осадков - Количество выпавших осадков за 24 часа, мм.
S - Снежный покров - Высота снежного покрова, см. При наведении курсора мыши на число - состояние снежного покрова и степень покрытия местности в баллах.